STARLINK-34356 (64303 NORAD) Tracking and Keplerian Element Data

This shows tracking and keplerian element data for the satellite.

Feedback or suggestion? Click here.




ElementValue
Catalog64303
NameSTARLINK-34356
Epoch Orbit2971
Epoch Day354.18497548
Epoch Year2025
RAAN34.7473
Inclination70.0014
Eccentricity0.0003655
Argument of Perigee283.0106
Mean Anonmoly77.0645
Mean Motion14.98326146
Decay Rate4.39E-06
L11 64303U 25123N 25354.18497548 .00000439 00000+0 44564-4 0 9996
L22 64303 70.0014 34.7473 0003655 283.0106 77.0645 14.98326146 29719



Live tracking and technical data element details for STARLINK-34356 (NORAD 64303). STARLINK-34356 can be tracked NOW for your location showing map with azimuth and elevation plus other details from your city location.







IsCatalogInMostPopularTable: catalog: 64303, numindb: 4
Update: records affected: 1



GetName: 64303 STARLINK-34356

Hit Count: updated at: Tue, 17 Feb 2026 12:15:39 GMT